Theta_e
341 341 340 340 339 338 338 338 338 337 337 336 336 337 336 337 342 345 346 344 337 335 336 334 334 333 330 331 331 330 331 331 332 332 333 333 334 334 334 334 333 334 334 334 333 332 331 331 330 329 328 326 322 319 318 318 319 320 320 318 317 316 316 316 316 316 316 317 317 318 320 322 324 325
340 341 340 340 340 339 338 338 338 337 337 337 336 337 337 337 339 340 342 343 339 335 335 333 334 334 332 332 332 331 331 331 332 333 333 333 334 334 334 334 334 333 333 332 332 332 331 331 331 329 329 328 327 325 323 323 323 323 323 322 320 318 317 316 316 316 316 316 316 317 317 318 320 322
340 341 340 340 339 340 339 338 338 337 337 337 337 337 338 338 338 337 339 341 339 336 335 335 334 334 333 333 333 332 332 332 332 333 333 333 333 333 333 333 333 332 331 331 331 332 331 332 331 331 330 330 330 329 328 327 327 326 326 325 323 321 319 317 316 316 316 316 316 316 317 316 317 318
340 341 340 339 339 339 339 339 339 339 339 338 338 338 339 339 339 338 338 339 339 337 336 336 334 333 334 334 334 333 333 332 332 332 332 332 332 332 332 332 331 330 331 331 331 330 330 331 331 330 330 330 329 329 328 328 327 327 327 326 325 323 321 319 317 317 316 317 317 317 317 317 317 317
340 340 340 339 339 339 339 339 339 339 339 339 339 339 339 339 340 340 339 338 338 337 337 336 335 334 334 334 333 333 333 332 332 331 332 332 332 332 332 331 330 329 330 330 329 329 329 329 329 329 329 328 328 327 327 327 327 327 327 327 326 325 323 321 319 318 317 316 317 317 317 317 317 317
340 339 339 339 339 339 339 339 339 339 339 339 339 339 339 339 339 339 339 339 338 337 337 336 335 334 334 334 334 334 333 333 333 333 332 332 332 332 332 330 329 329 330 329 329 328 328 328 328 327 327 327 327 326 327 327 327 327 327 327 327 326 325 324 322 320 319 318 317 317 317 317 317 317
340 339 340 339 339 339 339 339 339 339 339 339 339 339 339 339 339 339 338 338 338 337 336 336 335 334 334 334 334 334 333 333 333 332 332 331 331 331 331 330 329 329 329 329 328 328 328 328 328 328 327 327 326 327 327 327 327 327 327 327 327 326 326 325 324 323 322 320 319 318 317 317 317 317
339 339 340 339 338 338 338 339 339 338 339 338 338 338 339 339 338 338 337 337 337 336 336 335 334 334 334 334 333 333 333 333 332 332 332 331 331 330 330 330 329 329 328 328 328 328 328 328 328 328 328 327 327 327 327 327 327 327 328 327 327 326 327 327 327 326 325 324 323 321 320 319 318 317
338 338 339 339 338 338 339 339 339 339 339 338 338 338 338 338 338 338 337 337 336 336 336 335 335 334 334 334 333 333 333 332 333 333 332 331 331 330 330 330 330 329 329 329 329 328 328 328 327 328 328 328 328 328 328 328 328 328 328 328 327 327 327 327 327 327 326 326 325 324 323 321 320 319
338 338 339 339 338 339 339 339 339 339 339 339 339 338 338 338 338 338 338 337 337 336 336 336 335 335 334 334 334 333 333 332 333 333 333 332 332 331 331 330 330 330 329 329 328 328 328 328 327 327 328 328 328 328 328 328 328 328 328 328 328 328 327 326 325 325 326 326 326 325 324 324 323 322
338 338 338 338 339 339 339 340 340 340 340 339 339 339 339 339 339 339 339 338 337 337 336 336 336 335 335 334 334 333 333 333 333 333 333 332 332 331 331 331 330 329 329 329 329 328 329 328 328 328 328 328 328 328 328 328 328 329 329 329 329 328 327 326 325 325 325 326 326 326 325 325 325 325
339 339 339 339 339 340 340 340 340 339 340 340 339 339 339 339 339 339 338 338 338 337 337 336 336 336 335 335 334 334 334 333 333 332 332 332 332 330 330 330 330 330 330 330 329 329 329 329 329 329 328 329 328 329 329 329 328 328 328 328 328 327 326 325 326 327 326 326 326 326 326 326 326 325
339 339 340 340 340 340 340 340 340 339 340 339 339 339 338 339 339 339 338 339 338 338 337 337 337 336 336 335 335 334 333 333 332 332 332 332 332 331 331 331 331 331 331 330 330 329 329 329 329 328 328 328 328 329 329 328 328 328 327 327 327 326 325 325 326 326 326 326 326 327 327 327 326 326
340 339 340 340 341 341 341 341 340 339 339 339 338 338 338 338 339 339 339 339 338 338 338 337 336 336 335 335 335 334 333 332 332 331 331 331 331 331 331 331 330 330 330 330 330 329 329 329 329 329 329 328 328 329 328 327 326 326 326 326 326 325 325 325 325 325 325 325 325 325 326 326 326 326
339 339 340 341 341 341 341 340 339 339 338 337 337 337 337 338 338 338 338 338 339 338 337 337 336 335 335 335 334 334 333 333 332 332 331 331 330 330 331 331 330 329 329 329 330 330 330 329 329 329 329 328 328 327 326 325 324 324 324 325 325 326 326 325 325 324 324 324 325 324 325 325 325 325
339 340 340 341 341 340 340 339 338 338 337 336 336 335 336 336 336 336 336 336 337 337 337 336 336 335 335 334 334 333 333 332 332 331 331 330 330 330 331 331 330 329 328 329 330 330 330 329 329 328 327 326 326 325 324 324 324 323 324 324 324 325 325 325 325 325 325 325 325 325 325 325 324 324
340 341 341 341 340 339 339 339 338 337 336 335 336 336 336 335 335 335 335 335 335 335 335 335 334 334 333 332 332 332 332 331 331 330 331 330 330 330 331 331 330 329 329 329 330 330 329 327 327 326 326 325 325 325 325 324 323 323 323 323 323 324 324 325 325 324 324 323 323 322 323 323 323 323
341 341 340 338 338 339 340 339 338 337 335 334 335 335 336 337 336 336 336 336 336 336 335 334 334 334 333 332 332 332 332 332 331 330 330 330 330 331 331 330 329 327 327 328 329 328 326 326 326 326 326 325 326 325 324 323 323 323 323 323 324 324 323 322 321 320 319 319 319 319 320 320 321 320
341 340 338 336 337 340 340 339 338 336 335 334 334 334 336 337 338 338 337 337 337 337 337 336 335 335 335 335 335 334 334 333 332 331 330 330 330 329 328 327 326 324 324 324 326 326 326 326 326 326 326 325 325 324 323 323 324 323 323 322 321 320 319 318 317 317 317 316 317 317 318 318 319 319
341 338 336 336 338 339 339 338 336 333 332 332 334 336 338 338 339 339 338 338 338 337 336 335 335 335 335 336 335 334 333 333 332 331 329 329 328 326 325 325 324 324 324 324 325 326 326 325 325 325 324 323 322 321 321 320 320 320 320 319 318 317 317 316 316 315 314 314 315 316 317 318 320 321
338 336 335 337 337 336 337 337 333 330 332 334 335 338 340 340 339 339 338 338 337 336 335 335 334 334 334 334 333 332 331 331 331 330 328 328 327 325 324 324 324 325 325 325 326 325 325 325 324 323 321 320 318 318 318 317 317 317 317 317 317 317 316 316 314 313 314 315 317 318 320 321 322 322
336 336 334 334 334 336 337 333 327 328 334 338 339 340 340 339 339 339 338 336 336 335 335 334 333 333 332 331 331 330 330 330 330 329 328 327 326 324 324 324 325 325 325 325 325 325 324 324 322 320 318 317 317 317 317 317 317 317 317 317 316 315 315 315 315 316 317 319 319 320 322 322 323 323
336 333 328 327 331 336 335 328 324 326 332 337 339 340 340 339 338 337 335 334 334 334 333 333 332 331 330 330 329 328 328 328 328 328 328 327 325 323 324 324 324 325 325 325 325 325 323 321 319 317 316 317 317 317 317 317 317 317 316 315 315 314 315 316 317 318 319 320 320 321 322 323 323 323
334 329 322 323 331 336 333 327 323 323 326 333 338 339 339 338 337 335 333 332 333 333 332 331 330 330 329 328 328 327 327 328 328 327 327 327 325 325 325 324 324 325 326 325 325 325 322 319 317 317 317 317 317 317 316 316 316 315 314 314 315 315 316 317 318 319 320 320 320 321 322 322 322 321
330 323 320 326 335 335 329 325 324 323 327 333 337 338 338 338 336 334 331 330 331 330 329 328 327 327 327 326 327 327 327 328 327 326 326 325 324 325 325 325 325 325 325 322 322 322 320 318 317 317 317 316 316 315 315 314 314 313 314 315 315 316 317 319 319 320 320 321 321 321 321 321 321 320
326 321 324 332 336 331 326 328 330 332 335 338 338 338 338 336 334 331 329 328 327 326 326 325 325 325 325 325 326 326 326 326 325 324 323 322 321 321 321 322 322 322 321 318 317 318 317 316 315 315 314 314 313 313 314 313 314 314 315 315 316 317 319 320 320 321 321 321 321 320 320 320 319 319
325 328 332 334 331 327 328 334 337 337 337 337 337 336 335 333 331 329 328 326 325 324 324 323 323 324 325 325 326 325 325 325 324 322 320 319 318 317 317 317 317 317 316 315 315 314 312 312 312 311 312 312 312 313 313 313 314 314 315 316 317 319 320 320 320 320 320 320 320 320 319 319 319 318
330 336 337 333 330 332 335 338 337 336 335 334 333 333 332 330 329 328 326 325 323 322 322 322 324 325 325 325 324 324 323 322 321 319 318 317 316 315 316 316 316 315 315 313 312 310 309 310 311 311 312 312 312 313 313 313 314 315 316 318 319 320 320 320 320 320 320 320 319 319 319 318 318 318
336 338 336 335 336 337 337 336 335 334 334 332 331 330 329 329 328 326 325 323 321 321 323 324 325 325 324 323 322 321 321 320 318 317 316 315 315 315 315 315 314 313 312 310 309 309 310 310 311 312 312 313 313 313 314 314 315 317 318 320 320 320 320 320 320 320 320 319 319 318 318 318 318 318
337 336 336 337 338 337 336 335 334 334 332 330 329 329 328 328 327 325 324 322 321 322 324 324 324 323 321 321 321 320 319 317 316 314 314 314 315 315 314 312 311 310 309 309 309 309 310 311 311 312 313 313 314 315 316 317 318 320 320 320 320 320 320 321 320 320 319 318 318 318 318 318 318 318
335 335 336 336 336 335 335 334 333 331 328 326 326 327 326 326 325 324 323 323 323 324 324 324 322 321 320 320 320 319 317 315 314 314 314 315 314 313 311 309 308 308 308 309 309 310 310 311 311 311 312 313 314 315 316 318 320 320 320 319 320 320 321 320 320 319 318 318 318 318 318 318 318 318
334 334 334 334 334 334 333 332 330 327 325 325 325 326 325 324 324 324 324 324 325 324 323 322 321 320 321 320 319 316 314 314 313 313 314 313 311 310 309 308 308 309 309 309 309 309 310 309 309 309 309 311 312 313 315 319 320 320 319 319 320 320 320 320 319 319 318 318 318 318 318 318 318 318
333 332 332 332 333 332 331 329 328 326 325 326 326 326 325 325 325 325 324 325 324 323 322 322 321 321 321 318 316 314 313 313 312 312 312 311 309 308 308 308 309 309 310 310 309 309 308 308 308 308 308 309 310 312 316 319 320 319 319 319 319 320 319 319 318 318 318 318 318 318 318 318 317 318
332 331 332 331 331 331 330 329 328 327 326 326 326 326 326 326 326 325 324 324 323 322 321 320 319 319 317 315 313 312 312 312 311 310 309 308 307 307 308 309 309 309 310 310 309 308 308 307 308 308 308 309 311 314 317 319 319 319 319 319 319 319 319 319 319 318 318 318 318 318 318 317 317 317
331 332 332 332 332 331 330 330 329 329 328 326 326 326 326 326 325 324 323 322 321 320 318 316 315 314 313 312 311 311 310 310 309 308 307 307 307 308 308 309 309 309 309 309 308 307 308 308 308 308 309 311 315 318 318 318 318 318 318 319 319 319 319 319 319 318 317 317 317 317 317 317 317 317
330 331 331 330 329 329 328 328 328 328 328 327 327 327 327 326 324 323 322 321 319 317 315 314 313 312 311 310 310 309 308 308 307 306 307 307 308 308 308 309 309 309 308 308 308 308 308 308 308 309 310 314 318 319 318 317 318 318 318 319 319 319 319 318 318 317 316 316 316 316 316 316 316 316
329 328 327 326 326 326 326 327 326 327 328 328 327 326 324 322 321 320 319 318 315 313 313 312 312 311 310 309 308 307 307 307 307 307 307 308 308 308 308 308 308 308 307 308 308 308 308 308 308 309 313 317 320 319 318 318 318 318 318 319 319 318 318 317 316 315 314 314 314 315 315 315 316 316
326 325 324 324 325 324 324 324 323 323 323 323 322 321 319 317 317 317 315 314 313 313 312 312 311 311 310 309 307 307 307 307 307 307 307 307 307 307 308 307 307 308 308 308 308 308 308 308 308 310 314 319 320 319 318 319 318 318 318 318 318 318 316 315 314 313 313 313 313 313 314 315 315 314
323 325 325 324 323 322 322 321 320 320 319 319 318 318 317 316 316 315 314 313 312 311 310 309 309 308 308 307 307 307 307 307 307 307 307 307 307 307 306 306 307 308 308 309 308 308 308 308 309 311 315 317 317 318 318 319 319 318 317 316 316 316 314 313 312 311 311 312 312 313 314 313 313 313
322 324 324 322 321 321 321 320 320 320 319 318 318 317 317 316 315 314 313 312 311 310 308 307 306 307 307 307 307 308 308 307 306 306 306 306 306 306 306 306 307 308 309 308 308 307 308 309 310 312 312 313 314 316 318 319 318 318 316 315 315 314 312 311 310 310 311 311 312 312 313 312 311 312
322 323 323 322 321 321 321 320 319 318 318 317 317 316 316 314 313 313 312 311 311 310 309 308 308 308 308 308 307 307 306 306 305 305 305 305 305 305 306 307 308 308 308 308 307 308 308 308 308 309 309 310 313 316 319 319 318 317 316 314 313 311 309 308 309 309 310 310 311 311 311 310 311 311
323 323 322 321 321 320 319 319 318 317 317 316 316 315 315 313 312 311 311 310 310 311 311 310 309 308 307 306 306 306 305 305 304 304 305 305 306 306 306 307 308 308 308 307 307 308 307 307 307 307 308 310 314 318 319 319 318 317 315 314 312 309 307 307 308 308 309 310 310 310 309 309 310 312
323 322 321 320 320 320 319 318 318 317 316 316 315 315 314 312 311 310 310 310 310 310 310 309 307 306 306 306 305 305 304 304 304 305 305 305 305 305 306 307 308 307 307 307 307 307 307 306 307 307 308 311 316 318 318 318 317 316 314 313 310 308 307 307 307 307 308 309 309 309 309 309 310 311
322 320 320 320 320 319 319 318 317 317 316 315 314 314 312 311 310 310 309 309 309 308 308 307 306 305 306 305 305 304 304 304 304 305 305 305 305 305 306 307 307 307 306 306 307 307 306 306 306 307 309 314 316 317 317 317 316 315 313 312 309 308 307 307 307 307 308 308 308 309 310 310 310 310
320 319 319 319 318 318 318 317 317 316 315 314 313 313 312 311 310 309 309 309 309 308 307 307 306 305 305 304 304 304 304 304 305 305 305 305 305 306 307 307 306 306 305 306 306 307 306 306 306 307 311 315 315 315 316 316 315 314 312 311 309 307 307 307 306 306 307 307 307 308 310 310 310 310
Wind_Speed
13 11 10 10 10 9 8 7 7 7 7 8 8 7 6 5 4 1 2 3 3 4 6 5 5 6 7 8 9 10 11 11 11 11 11 12 12 13 14 13 13 14 15 16 16 16 16 16 16 16 15 15 15 15 15 15 15 14 15 15 15 15 14 14 14 14 14 14 15 15 15 16 17 18
15 13 12 13 12 12 11 11 10 10 10 10 10 10 10 9 8 6 3 3 5 7 9 8 6 6 6 6 8 10 11 12 12 12 12 12 13 14 14 14 16 17 17 16 15 14 14 13 13 12 12 13 13 14 14 15 16 16 17 17 18 18 17 16 15 15 15 15 15 15 15 15 16 16
15 14 13 13 14 13 12 12 12 12 11 11 12 11 11 12 12 12 8 3 6 9 8 8 8 8 9 10 11 13 14 15 15 15 15 15 15 15 15 16 18 18 16 14 13 13 14 14 14 13 12 13 14 15 16 17 18 19 19 19 20 20 20 19 17 16 15 15 15 15 16 16 16 16
16 16 15 14 15 14 13 13 12 12 11 12 12 12 13 14 14 14 12 7 9 14 14 13 13 11 11 13 13 13 14 15 16 17 18 17 17 16 16 16 16 15 14 14 14 15 15 14 14 14 14 15 16 17 18 18 18 18 18 19 20 20 20 21 20 19 17 16 16 16 16 17 16 16
18 18 17 16 16 15 15 15 14 13 13 13 13 13 14 15 15 15 14 11 12 16 18 16 14 12 12 14 14 14 15 16 17 18 19 19 19 18 17 15 15 14 14 14 14 15 15 15 16 16 16 17 18 18 18 18 18 18 18 19 19 19 19 20 21 22 20 19 18 18 17 17 16 15
18 18 19 19 18 17 16 15 14 14 15 14 15 16 16 17 17 16 17 16 14 15 17 16 14 13 12 13 13 13 14 14 15 17 18 19 20 19 19 18 17 15 14 14 15 15 17 18 20 20 18 17 18 18 19 19 19 19 19 19 19 19 19 19 20 22 23 23 22 21 19 18 17 16
20 19 19 19 18 17 15 15 15 15 16 15 15 17 17 18 17 17 18 18 17 16 17 15 14 13 13 14 14 13 14 15 15 17 19 20 20 19 20 21 21 19 17 17 18 19 19 20 21 21 21 20 19 19 20 20 20 20 20 20 20 20 21 21 21 21 22 24 24 24 24 22 19 17
24 23 20 18 17 17 16 16 16 16 17 17 17 17 18 18 17 17 17 18 18 17 16 14 14 15 15 15 15 14 16 17 17 18 18 18 18 19 20 22 24 23 22 21 22 22 21 21 21 21 21 21 20 20 20 21 21 20 20 22 23 23 23 24 25 25 24 24 24 25 26 25 24 21
25 24 22 20 18 17 17 18 18 18 18 17 17 17 18 18 18 17 18 19 19 18 18 18 17 16 16 16 16 16 16 17 18 18 18 17 17 18 19 21 23 24 25 25 25 24 22 22 22 22 22 21 22 23 23 22 22 22 23 24 25 24 25 26 27 28 28 27 26 25 25 25 26 25
25 24 23 21 19 19 19 20 20 19 19 18 18 18 19 19 18 18 18 19 19 20 21 21 19 18 17 18 19 18 16 16 18 18 19 19 18 18 20 21 22 23 25 25 24 23 23 22 23 23 24 25 26 26 25 24 23 24 24 25 25 25 26 27 28 28 29 30 30 29 27 26 26 26
26 25 24 22 20 20 20 20 20 20 20 19 19 19 19 19 18 18 18 18 19 20 20 21 20 20 20 20 20 19 16 14 16 17 18 20 20 20 21 22 23 22 22 22 22 22 24 24 24 24 25 26 27 26 25 24 24 24 25 26 27 27 28 29 29 30 30 31 31 32 31 30 29 29
26 25 23 21 20 20 20 20 21 21 21 21 21 21 20 19 19 19 20 20 19 19 20 20 20 20 20 20 19 19 17 16 17 19 20 21 22 22 22 22 23 23 22 21 21 22 23 25 26 26 27 27 27 26 25 25 25 26 26 28 28 29 30 31 31 31 30 30 31 31 32 33 32 30
26 25 23 21 21 20 20 21 22 22 23 23 24 23 22 21 21 21 21 21 20 20 19 19 19 18 18 20 20 20 20 20 20 20 19 20 21 21 21 22 21 20 20 20 21 22 24 25 26 26 27 28 27 26 25 25 27 28 29 30 31 32 33 32 31 31 31 30 29 29 30 30 31 30
26 25 23 21 20 19 20 21 22 22 23 24 25 25 23 22 22 21 21 21 20 20 19 20 20 18 19 22 22 22 23 23 23 22 21 20 20 18 17 17 18 18 18 19 21 22 22 23 24 25 27 27 27 27 28 29 30 31 31 32 32 32 31 30 30 30 30 29 29 29 29 29 29 29
27 25 23 21 18 18 19 21 23 23 23 23 23 24 24 23 22 21 21 20 20 20 20 21 21 19 20 23 23 22 23 23 23 22 21 19 17 15 12 12 14 18 19 19 21 23 23 23 25 26 28 29 29 30 31 31 30 29 29 29 29 28 28 28 27 27 28 29 30 30 31 31 31 31
26 24 22 20 18 17 18 19 19 18 17 17 18 20 22 23 24 24 23 22 21 21 21 20 21 21 21 22 22 20 19 18 18 18 18 18 17 16 14 13 16 21 22 21 22 25 25 25 26 28 29 30 31 30 30 29 27 26 26 25 26 27 27 28 28 29 31 32 33 33 33 34 34 34
25 23 21 18 17 17 17 15 13 10 9 12 14 16 18 21 23 23 24 24 24 24 24 23 24 25 24 22 21 18 16 16 18 19 18 18 19 19 18 18 21 24 24 22 23 25 27 27 27 28 30 29 27 27 27 27 26 25 24 25 26 27 28 29 30 30 31 31 31 32 33 34 35 36
25 23 21 18 17 18 17 15 14 13 11 12 14 16 17 20 22 23 24 24 24 25 25 25 26 27 26 24 23 22 22 23 24 23 21 19 20 21 21 22 24 25 25 25 24 23 24 26 26 27 27 26 25 27 28 29 29 27 26 26 24 24 24 25 26 27 28 29 30 31 32 33 34 35
25 22 20 19 17 15 15 15 14 13 13 13 15 17 21 24 25 25 25 24 23 24 24 24 25 25 24 25 25 24 24 24 23 23 23 20 19 20 21 23 24 26 27 26 22 20 21 22 22 24 26 25 25 27 28 28 27 25 23 21 20 20 22 24 26 27 29 30 31 32 33 34 35 36
23 21 20 19 16 15 15 13 11 11 12 12 14 18 23 26 26 26 25 23 22 22 21 22 23 23 23 23 23 21 21 21 20 20 21 21 20 19 19 21 23 24 23 22 21 20 21 21 22 24 25 24 23 23 23 22 21 20 20 20 22 25 27 29 31 32 32 32 32 33 34 35 36 36
20 19 19 18 18 18 17 14 13 14 16 16 16 19 23 24 25 24 23 22 21 20 18 18 19 20 20 19 19 21 22 23 22 19 19 22 23 19 15 14 17 19 20 22 23 21 21 23 23 23 23 21 20 22 24 24 23 22 22 24 27 30 32 33 34 32 31 31 32 33 34 35 35 35
20 18 17 18 20 19 17 15 16 17 18 18 18 20 22 22 22 22 21 20 19 17 16 16 16 15 15 15 16 17 19 20 21 21 23 24 20 15 12 13 16 18 22 26 24 19 20 22 20 20 20 20 21 25 26 25 23 23 24 27 31 33 33 33 32 30 29 30 32 33 33 32 31 33
19 20 21 23 24 22 20 20 19 17 17 17 18 20 21 20 20 20 18 16 14 13 13 14 13 13 14 14 14 14 15 16 17 19 22 20 16 14 18 20 16 12 16 23 21 17 17 17 18 20 18 13 15 20 21 21 22 25 29 31 32 32 32 31 30 29 30 32 34 34 33 32 32 34
19 22 26 27 26 23 23 23 20 18 17 17 18 21 22 20 20 18 16 14 13 12 12 13 13 14 15 15 15 16 15 15 15 15 16 17 15 17 21 22 17 12 16 22 22 19 19 19 21 23 18 11 12 17 21 23 25 28 31 31 31 31 31 30 30 31 33 35 36 36 34 34 36 37
25 26 27 28 27 24 23 22 21 20 19 19 20 22 21 19 18 16 15 15 15 16 17 16 14 14 14 14 14 14 12 12 12 12 13 15 15 16 17 19 18 19 21 22 21 20 22 21 21 21 19 16 17 21 24 27 29 31 31 31 30 30 30 30 31 34 35 36 36 35 35 36 37 37
27 26 26 27 27 24 22 21 19 18 18 18 19 20 19 18 17 15 15 15 16 17 17 16 14 13 13 13 13 12 12 12 11 9 9 9 11 12 13 14 16 19 21 20 17 18 20 20 19 19 18 19 21 23 24 25 29 31 30 29 29 29 31 33 34 35 35 35 35 35 36 38 38 39
25 24 25 26 24 21 20 18 15 14 13 13 15 16 16 15 14 14 14 14 15 15 14 13 13 12 11 12 12 12 12 11 9 7 8 10 13 14 14 15 16 18 19 18 18 20 21 22 22 23 23 23 21 20 19 22 27 30 30 30 31 31 33 35 34 34 34 34 35 36 37 39 40 40
24 24 24 23 21 18 16 14 12 11 10 10 12 13 13 13 13 13 14 13 12 11 11 11 11 10 10 10 9 9 8 8 8 9 11 14 16 16 16 15 15 17 19 21 23 23 23 24 24 25 27 27 22 17 17 22 28 31 30 30 31 33 35 35 33 33 33 34 35 36 37 38 39 38
22 22 21 20 17 15 14 12 11 10 10 11 13 13 13 14 13 13 12 12 10 10 10 10 10 10 9 8 8 8 8 8 9 11 14 16 16 16 16 15 17 20 22 23 22 21 20 24 26 28 29 30 27 24 24 26 28 30 29 28 31 36 38 35 32 32 33 34 35 36 37 38 39 38
21 20 18 16 14 13 11 10 10 10 12 14 14 14 13 12 11 11 11 10 9 9 10 10 10 10 9 8 9 9 8 8 11 13 15 15 15 14 15 17 21 23 21 20 20 21 22 24 26 27 30 30 28 28 29 28 26 27 29 30 31 32 34 34 32 31 32 35 37 38 39 40 40 39
20 18 16 14 12 11 9 10 12 13 13 13 12 11 9 8 8 8 8 8 9 10 11 11 11 11 10 10 9 8 8 11 13 13 12 12 12 14 16 19 22 24 23 22 22 22 22 22 22 24 27 28 27 29 30 28 25 26 31 34 32 29 31 35 34 34 34 36 38 40 41 41 41 41
19 17 15 14 13 11 10 12 12 12 10 10 8 7 6 6 6 7 8 9 11 12 12 12 13 13 12 11 9 8 10 12 12 11 11 12 13 15 18 19 22 24 26 26 24 22 21 21 23 25 27 27 27 29 30 28 26 28 32 35 34 32 34 35 35 36 37 36 37 41 42 41 42 41
18 16 16 15 13 11 12 13 13 11 10 9 8 8 8 8 9 9 10 12 14 14 14 13 13 12 10 8 7 8 10 11 11 11 12 13 15 17 19 20 22 24 25 26 25 24 24 25 26 28 29 29 28 28 27 26 27 30 33 34 34 33 34 35 36 37 37 36 36 39 41 41 42 41
15 15 15 13 12 12 13 14 15 15 14 14 14 13 11 12 13 12 12 12 13 12 11 8 7 7 6 5 6 8 9 10 11 11 12 13 16 18 20 20 22 23 23 22 23 25 27 29 30 30 32 31 28 24 22 23 27 31 33 33 32 32 34 36 37 37 37 37 37 37 39 41 42 41
14 13 12 12 11 12 14 17 19 19 19 19 19 16 14 13 14 13 12 11 9 6 4 2 3 4 5 6 7 8 9 10 11 12 13 15 17 19 20 21 21 21 20 20 23 26 28 30 30 28 28 26 22 19 21 23 24 27 31 32 32 32 34 36 37 37 38 37 36 34 34 36 40 40
12 10 9 9 9 12 15 17 17 18 20 21 19 18 15 14 13 13 12 9 6 2 1 3 4 4 4 6 8 9 10 11 13 14 15 17 17 18 19 19 18 19 20 22 25 27 28 29 29 24 17 13 10 11 18 26 26 24 26 31 33 33 34 35 37 37 36 34 33 32 30 32 38 41
11 9 8 10 12 15 15 10 7 11 16 16 14 13 11 8 7 6 6 6 4 2 2 2 2 3 4 7 9 9 10 12 13 15 16 16 17 18 18 17 18 20 23 25 26 27 26 27 28 23 14 8 6 6 14 25 29 25 23 27 31 32 33 34 34 34 33 32 32 32 31 33 39 43
10 9 7 8 9 8 5 5 9 10 9 9 8 7 6 6 5 5 5 4 3 1 0 1 3 5 7 9 9 9 10 12 14 15 15 15 17 16 16 18 21 23 25 25 24 25 26 26 27 25 16 8 6 7 11 18 25 28 26 25 28 31 32 31 31 32 33 32 31 33 34 35 39 45
11 9 5 3 5 7 9 10 10 9 9 8 6 5 4 3 2 1 2 1 2 3 4 5 6 7 8 8 7 8 11 13 13 14 15 15 16 17 18 21 23 24 24 24 23 25 27 26 26 25 21 16 16 18 18 20 25 30 32 29 27 28 30 31 33 34 33 32 33 35 35 34 38 42
11 10 7 6 8 9 9 8 7 6 5 4 3 3 2 3 3 2 2 2 5 6 6 6 6 6 6 6 8 9 11 11 12 13 15 15 16 19 21 23 23 22 21 21 22 24 26 27 27 27 28 29 29 28 26 24 25 29 33 33 30 29 30 32 34 34 33 34 35 33 31 31 35 37
10 10 8 7 8 8 8 8 7 6 5 5 4 4 4 5 5 4 4 5 7 6 5 6 6 6 6 8 10 9 10 11 12 14 15 16 18 21 22 21 21 20 19 20 22 24 25 28 30 30 31 32 31 25 19 16 17 23 31 35 35 34 34 34 33 32 33 34 32 28 27 29 30 31
11 11 10 9 8 8 8 7 5 4 4 3 2 3 4 5 4 5 6 7 7 6 6 5 4 5 7 8 8 8 9 11 12 14 16 18 20 21 21 20 19 20 20 21 23 25 27 29 31 31 32 31 26 17 10 10 14 21 30 35 37 39 38 36 34 32 30 28 25 23 24 25 21 17
12 11 11 9 6 6 6 5 3 2 1 1 3 4 3 2 3 3 5 6 6 7 7 4 2 4 6 6 6 8 10 11 13 15 17 18 19 20 21 20 20 21 23 24 25 26 28 30 31 31 30 27 22 16 13 15 19 23 27 31 35 39 39 38 37 35 30 26 24 24 25 25 19 15
12 11 11 9 7 6 5 4 4 3 3 4 5 5 3 0 2 4 6 6 6 8 8 5 3 4 5 5 7 9 10 11 14 16 16 17 18 20 20 20 20 22 25 26 26 28 29 30 31 30 25 21 20 19 17 18 21 23 26 29 33 36 36 36 37 37 34 31 29 27 27 27 25 24
11 10 10 8 6 4 4 6 5 4 4 5 5 5 3 2 2 4 6 7 7 8 6 3 1 2 3 5 8 9 10 12 14 15 15 16 19 20 19 19 20 23 25 26 27 28 28 29 31 29 22 18 20 20 18 18 21 24 26 28 30 32 33 32 33 33 31 31 32 30 28 28 29 30
Wind_Direction
200 209 219 222 226 225 223 228 231 229 228 225 231 239 233 209 190 197 287 278 259 273 295 313 315 291 261 236 242 252 259 268 271 269 274 279 281 281 280 279 277 277 278 277 274 273 276 280 282 283 283 283 281 279 278 282 285 287 288 289 289 291 295 298 299 299 298 295 292 287 283 278 275 272
202 209 217 220 225 228 228 230 230 235 240 238 237 241 242 234 220 210 224 268 268 268 283 293 301 300 281 271 281 283 284 286 280 276 278 278 280 281 278 276 278 280 281 280 278 276 277 279 282 284 282 282 282 280 278 279 282 287 289 288 286 284 285 287 291 294 295 296 295 293 290 286 281 277
205 210 217 219 222 224 225 227 230 237 240 241 242 241 238 238 239 233 220 234 267 263 274 281 277 285 288 288 292 291 290 288 284 282 282 282 283 279 274 278 282 284 283 281 280 279 280 279 279 281 279 278 280 279 280 283 286 291 292 289 286 283 280 279 281 286 288 291 293 294 293 292 289 284
210 213 217 218 220 219 218 220 224 232 235 235 236 237 236 236 242 242 229 223 253 259 266 275 274 276 280 279 278 278 281 282 281 283 285 286 285 277 274 281 287 285 280 278 280 285 287 282 277 276 276 278 283 284 285 287 289 291 293 292 289 284 279 276 275 277 280 284 287 290 292 292 291 289
213 215 215 218 221 220 221 224 226 230 232 234 236 237 237 238 240 240 235 235 252 263 267 269 270 271 272 273 271 270 273 275 276 281 285 287 285 278 275 284 294 289 278 275 279 284 285 282 280 280 282 285 287 288 289 288 288 289 291 294 294 290 284 278 274 273 275 278 280 284 288 288 288 288
212 215 217 219 220 221 223 226 229 230 228 230 237 238 238 240 240 238 238 239 244 258 265 264 262 263 266 270 271 269 269 271 273 275 277 282 285 282 280 285 292 290 279 274 277 282 283 284 284 284 286 288 287 287 288 287 287 288 290 293 295 293 290 285 280 275 273 274 275 277 280 282 282 284
212 217 220 217 213 216 222 225 229 230 228 229 235 239 239 240 242 239 239 239 240 251 261 261 259 260 261 264 266 267 269 272 274 274 276 280 281 281 284 288 289 288 283 280 281 283 283 283 285 284 286 287 285 285 286 285 284 285 288 293 294 293 292 291 288 283 277 275 274 274 275 276 277 278
215 217 218 214 212 218 223 227 231 231 232 233 234 239 241 240 241 241 240 243 245 252 260 262 263 267 268 268 268 270 275 277 276 275 278 280 278 277 280 286 288 288 287 286 287 287 285 283 284 285 286 285 282 282 283 282 280 279 283 290 291 290 289 290 289 287 284 279 277 275 273 272 272 272
217 216 219 218 217 220 226 231 235 234 234 235 237 242 244 242 242 244 245 246 248 253 260 265 269 272 271 273 276 278 278 279 279 275 273 273 277 278 277 278 279 281 283 286 288 289 290 288 285 283 282 282 281 283 283 282 279 278 281 285 286 285 285 286 286 284 283 281 279 278 276 273 272 269
219 217 219 221 220 224 231 235 237 238 239 241 243 245 247 246 246 246 247 248 249 252 258 263 267 269 270 275 282 285 283 280 280 279 274 271 271 274 276 276 276 277 280 283 286 289 292 293 290 287 284 283 284 285 285 285 284 283 282 282 281 281 283 284 283 281 281 280 278 277 276 276 276 273
220 220 222 224 226 228 233 236 240 244 245 246 246 247 248 249 248 247 248 250 250 251 254 260 264 268 273 277 281 285 287 281 277 277 274 271 272 273 273 275 277 278 278 279 283 288 291 291 290 288 286 285 285 285 286 288 288 286 285 283 281 281 282 284 283 282 282 282 280 277 275 274 275 276
222 225 226 228 230 231 234 240 246 250 250 248 247 248 250 250 249 249 251 251 250 249 251 257 261 267 272 273 274 280 282 276 274 276 272 268 273 278 277 275 276 276 275 274 277 283 286 287 287 287 286 286 285 286 286 287 288 288 286 285 283 283 284 284 284 283 283 283 282 279 276 275 274 274
224 226 228 231 234 236 241 248 252 253 252 251 251 251 250 249 248 250 250 249 247 246 247 252 257 260 262 265 268 272 276 277 279 282 277 269 272 277 277 278 279 277 275 275 278 283 285 285 286 287 287 287 288 287 287 288 289 288 287 286 284 285 286 286 285 284 284 283 282 280 277 276 274 271
222 225 228 233 238 244 250 254 255 255 256 255 257 258 256 252 250 249 248 247 245 242 242 247 252 253 255 260 262 265 271 277 278 278 275 272 273 275 272 275 279 278 280 282 283 285 286 284 283 283 284 286 287 286 287 290 290 289 288 287 286 286 287 286 285 284 284 284 283 281 279 276 272 267
221 224 228 231 235 244 253 258 258 258 258 257 258 261 260 258 255 253 251 250 247 244 244 247 251 250 252 258 262 263 268 271 272 272 272 270 273 275 273 277 280 282 288 291 286 283 284 282 281 282 283 284 285 287 290 292 292 291 290 288 286 285 284 284 284 284 285 285 284 282 280 278 275 271
221 222 224 227 231 240 250 259 262 260 265 271 269 265 263 262 262 262 261 259 257 254 251 252 253 253 256 262 265 265 265 266 271 275 276 277 281 280 276 275 279 287 294 292 284 282 284 285 283 283 285 287 288 290 293 294 293 292 291 289 286 285 283 282 282 284 285 286 285 284 282 280 278 276
218 218 221 224 230 239 248 258 261 257 280 303 299 284 273 268 266 265 265 264 264 262 259 257 257 260 262 262 262 263 264 270 278 279 278 282 286 284 279 277 282 292 295 288 282 282 285 287 286 285 287 291 292 293 295 295 294 291 289 289 288 286 285 284 284 286 288 290 290 289 287 283 281 280
215 217 222 225 229 237 247 254 252 249 265 293 300 295 286 278 272 268 266 264 264 265 266 264 264 267 267 266 269 273 273 276 278 274 272 280 285 284 283 284 287 291 289 285 283 281 284 288 287 285 291 295 293 294 296 295 292 290 287 287 287 288 290 291 292 293 294 294 294 293 292 289 287 285
216 215 221 225 227 234 244 248 253 261 274 283 285 284 283 281 277 274 271 270 270 273 276 277 277 279 277 276 280 283 282 283 280 273 271 275 277 278 282 285 286 287 289 289 282 276 282 290 287 286 294 298 295 296 297 295 293 290 289 290 292 294 297 296 296 295 294 293 294 294 294 293 291 289
216 214 218 224 228 233 241 249 261 269 267 263 264 269 272 273 272 273 274 275 277 280 282 283 283 284 283 281 283 284 283 283 280 272 267 265 265 271 280 282 282 286 293 293 282 275 283 291 290 292 298 300 299 299 299 299 298 296 294 294 295 297 298 297 296 295 293 292 293 292 292 291 290 289
216 216 220 230 237 239 244 253 258 256 253 253 254 257 263 266 268 272 276 279 282 283 281 278 277 278 279 279 279 281 279 277 274 266 262 265 270 273 274 275 281 287 291 291 285 281 286 292 294 297 302 305 304 303 302 302 302 299 296 295 296 298 299 299 298 297 295 293 292 292 291 290 289 289
219 218 223 237 246 247 246 243 239 243 250 255 256 256 258 262 265 271 278 281 281 279 274 273 274 274 277 278 279 279 279 277 271 261 262 267 270 271 271 277 287 291 288 290 291 285 285 293 299 305 308 307 303 302 303 303 301 298 297 298 299 301 302 301 300 298 294 291 290 291 292 290 289 289
209 214 221 232 241 245 243 238 236 241 247 253 260 261 258 259 264 272 278 277 273 270 270 273 277 281 284 286 286 286 288 289 282 273 271 270 265 270 277 278 283 287 284 291 296 291 288 297 306 310 311 304 299 301 301 298 297 297 298 300 301 303 304 302 299 295 290 289 291 292 290 286 285 286
203 217 225 229 235 241 242 242 244 249 252 259 263 260 257 260 267 275 277 268 262 264 271 276 279 282 285 286 288 292 293 292 289 285 284 282 279 280 278 274 272 270 276 290 297 294 294 301 304 305 303 291 291 299 299 296 297 299 300 301 302 304 304 300 295 291 289 290 292 292 287 283 282 281
213 224 227 228 231 237 243 248 253 256 260 265 262 256 257 262 268 274 276 270 267 271 277 280 280 278 280 283 289 294 291 286 285 288 290 292 293 289 279 273 271 270 280 297 303 296 295 299 299 300 298 290 289 295 299 300 299 300 301 301 300 300 299 295 292 291 291 291 291 289 285 283 281 279
220 226 227 226 228 235 246 253 255 256 260 261 256 252 255 262 268 273 275 273 274 277 279 279 276 275 279 284 289 291 290 291 296 299 299 303 307 305 297 290 284 283 293 308 312 302 299 301 301 302 300 295 294 297 298 298 298 300 301 299 296 295 294 293 291 290 291 290 289 287 284 283 281 279
224 224 224 227 233 243 251 252 250 252 254 251 248 249 254 261 268 271 272 274 276 276 275 273 273 277 284 289 291 293 297 304 309 312 313 315 318 318 313 306 301 299 304 312 314 312 310 308 306 304 299 295 295 296 294 292 294 297 296 294 294 294 294 293 291 290 290 289 287 286 285 283 281 279
224 222 225 232 241 246 246 243 244 249 250 248 251 255 260 266 270 272 275 277 274 269 267 268 272 278 284 289 295 300 307 310 305 304 311 315 317 317 314 308 305 305 308 312 313 312 310 306 304 302 297 292 288 285 285 286 288 290 292 293 295 296 296 294 291 289 289 287 286 286 285 282 281 279
225 227 230 236 240 238 234 237 243 251 258 264 267 268 269 270 272 274 277 276 268 259 258 261 266 272 277 284 295 303 306 305 306 313 318 318 317 315 311 308 306 307 310 312 313 314 310 304 302 299 295 291 284 280 281 283 283 285 288 291 293 295 295 293 289 287 287 287 286 286 284 282 281 279
226 228 230 232 232 230 233 245 257 268 276 277 274 270 267 267 270 271 269 262 250 244 246 253 262 271 279 288 297 304 307 310 317 323 321 315 312 313 314 314 312 312 314 316 316 315 310 306 303 299 293 291 288 285 283 281 278 282 288 291 291 293 293 292 290 288 287 287 287 286 285 283 281 278
224 226 227 228 229 235 248 263 272 277 279 278 274 268 261 258 257 255 250 243 240 242 246 254 267 278 284 288 294 304 312 314 319 320 314 309 311 317 320 318 313 312 314 317 318 315 311 308 308 304 298 294 293 293 291 284 277 282 291 293 290 288 289 291 291 290 289 290 290 289 287 285 283 280
228 232 232 233 237 245 257 264 267 269 268 267 263 249 232 228 234 237 236 239 244 245 247 259 276 284 284 282 288 303 312 315 320 320 314 313 319 323 321 312 307 308 311 315 318 320 318 316 314 312 307 301 297 298 295 286 281 286 291 294 292 289 288 290 290 291 294 294 290 288 287 286 284 281
235 236 235 235 238 244 252 254 253 251 246 239 229 218 216 226 239 245 243 242 247 251 256 267 279 282 279 280 293 308 313 316 319 318 316 320 324 323 316 306 303 305 305 308 317 325 325 322 319 316 313 309 304 300 291 282 284 290 291 291 291 289 289 292 293 295 298 296 290 288 287 285 284 282
231 230 231 232 236 242 246 248 248 244 234 224 219 217 222 234 241 245 247 250 254 256 256 263 278 282 281 291 304 310 315 321 325 325 328 328 324 318 311 305 304 305 305 309 320 326 324 320 319 319 317 315 311 303 290 280 282 290 293 292 290 289 292 296 298 298 299 296 291 288 287 286 286 284
213 216 223 231 240 247 250 252 252 244 230 223 222 218 219 229 235 239 247 252 250 244 239 269 323 322 319 325 331 334 335 337 339 339 335 327 318 314 311 305 304 308 313 317 321 322 320 318 316 315 314 313 309 304 303 299 292 292 295 296 295 294 295 298 301 301 299 296 291 287 286 288 289 288
204 208 215 228 244 255 261 263 256 237 221 216 217 216 220 232 243 248 249 243 232 220 342 351 351 355 360 357 351 347 343 340 338 334 327 320 316 315 313 310 311 317 321 320 319 319 318 317 315 311 306 306 305 302 310 313 309 302 298 296 297 298 298 300 303 301 297 296 293 288 286 288 290 291
213 222 236 252 259 260 262 258 227 205 203 201 204 209 212 213 213 206 194 181 165 132 86 54 28 16 3 350 341 336 334 333 329 322 319 320 322 321 320 320 323 323 320 317 317 320 320 318 316 311 302 299 304 298 304 311 313 313 305 295 294 298 302 303 304 302 300 300 297 292 289 289 289 291
216 219 240 257 254 246 225 143 124 130 142 149 153 153 140 127 129 145 163 172 176 183 218 318 311 314 324 331 335 335 331 327 322 320 323 329 330 329 328 326 323 319 316 316 321 325 325 320 316 312 306 299 301 302 306 309 311 315 318 308 298 302 309 310 307 306 305 305 302 299 295 291 290 292
207 203 199 172 140 124 113 110 108 105 108 113 116 114 102 70 55 117 171 155 43 8 349 335 320 314 316 322 328 326 323 323 326 331 336 339 336 333 329 322 316 315 315 317 323 327 326 323 320 316 313 308 304 303 305 305 304 311 321 323 316 314 317 316 312 310 310 311 310 305 301 298 297 298
204 202 184 144 126 118 110 104 97 93 96 92 77 72 47 13 26 84 113 56 26 15 13 14 3 347 337 330 325 325 328 336 341 341 341 340 334 329 324 317 314 316 317 318 322 325 325 325 325 323 319 316 313 310 309 309 308 312 320 326 328 326 325 322 317 313 313 316 314 311 310 311 310 310
198 200 183 152 135 128 123 120 116 108 100 94 86 76 50 25 25 42 40 23 20 21 25 19 8 2 353 339 334 339 346 349 347 343 338 333 326 323 322 320 320 323 323 320 320 323 325 328 330 329 327 324 320 317 316 317 314 315 320 326 331 334 334 332 326 320 318 318 317 315 318 319 316 314
204 192 171 152 140 135 136 141 145 138 122 110 88 42 26 25 37 50 39 24 13 356 336 331 347 1 354 344 345 353 353 348 342 335 329 325 324 325 326 326 327 329 327 323 322 324 328 332 333 333 332 329 325 320 318 316 314 317 322 328 333 337 339 340 337 334 331 328 327 329 332 330 324 318
199 178 161 155 156 154 154 157 162 171 192 306 317 324 344 39 70 48 16 5 355 336 322 318 353 360 349 348 351 351 347 342 334 327 326 328 330 329 328 329 333 334 330 327 326 328 330 332 334 334 332 330 330 328 320 318 320 322 326 330 334 338 341 343 343 346 349 349 350 353 351 344 336 329
168 160 155 161 170 176 186 198 202 225 277 301 300 295 295 359 29 3 356 352 337 320 310 304 326 344 343 347 349 346 343 338 332 330 333 335 334 331 331 333 336 336 333 330 328 329 330 333 335 334 331 333 340 337 326 323 327 329 331 334 337 338 340 342 345 350 354 358 2 4 359 353 351 353
158 156 159 169 178 184 205 212 214 235 269 282 280 273 267 274 314 344 350 341 326 318 311 306 350 18 8 354 349 344 338 335 337 339 338 336 335 334 335 337 337 335 333 330 327 325 328 332 335 334 333 342 350 344 335 334 337 335 336 340 340 340 341 342 345 347 348 352 1 7 4 359 2 11